sat.trackr.live / text

‹ back to catalog

STARLINK-32028

NORAD 60095 · 2024-117E

PAYLOAD ACTIVE UNKNOWN

§ Identity

Operator
Country
US
Launch date
2024-06-23
Launch site
AFETR
Launch vehicle
Mass (kg)
RCS (m²)

Purposes: comms

External: N2YO · Heavens-Above · Gunter

§ Orbital elements

Epoch: 2026-09-21T13:28:23.667456Z

Period
93.85 min
Inclination
53.1586°
Eccentricity
0.0001820
Mean motion
15.34382625 rev/d
Perigee alt
461.5 km
Apogee alt
464.0 km
Semi-major
6,840.9 km
B*
-8.8388e-6
RAAN
204.6041°
Arg perigee
90.0760°
Mean anomaly
270.0451°
Rev number
12,691

§ Raw data

STARLINK-320281 60095U 24117E   26264.56138504 -.00000675  00000+0 -88388-5 0  99962 60095  53.1586 204.6041 0001820  90.0760 270.0451 15.34382625126917

JSON: /api/v1/satellites/60095 · /tle

For live sub-satellite position, see the globe view (requires WebGL).

§ Visibility from observer

Set your observer location to see the next 7 days of passes ≥ 10°. The values pass through the URL so the page stays shareable.

No JS? Fill the form by hand. The geolocation button needs JavaScript.